User: anonymous   Login
Location: Unspecified
(0.0000°N, 0.0000°E)
Time: 07:44:17
(UTC+00:00)
Language:

TBA - TO BE ASSIGNED - Orbit

View from above orbital plane
View from above orbital plane
View from above satellite
View from above satellite

Ground track
Ground track

The orbit is defined by the following mean orbital elements,

1 67336U          26145.33216745 +.00000000 +00000-0 +46068-3 0 00004
2 67336  43.0012 154.3825 0001373 296.7545  63.3166 15.27589485    06
Epoch (UTC): 25 May 2026 07:58:19
Eccentricity: 0.0001373
inclination: 43.0012°
perigee height: 482 km
apogee height: 484 km
right ascension of ascending node: 154.3825°
argument of perigee: 296.7545°
revolutions per day: 15.27589485
mean anomaly at epoch: 63.3166°

The dashed part of the orbit path shows where the satellite is in the earth's shadow,  

DLR